Location: Wien
(48.2082°N, 16.3738°E)
Time: 08:29:39
(UTC+02:00)

UNISAT 6 - Pass Details

Date: 25 April 2024
Orbit: 593 x 668 km, 97.7° (Epoch: 20 May)

Event Time Altitude Azimuth Distance (km) Brightness Sun altitude
Rises 05:04:27 0° 177° (S) 2,919 ? -7.0°
Reaches altitude 10° 05:06:42 10° 182° (S) 2,003 ? -6.7°
Maximum altitude 05:10:58 53° 260° (W) 762 ? -6.1°
Drops below altitude 10° 05:15:10 10° 338° (NNW) 1,975 ? -5.5°
Sets 05:17:23 0° 343° (NNW) 2,874 ? -5.1°
